Regional Weather Roundup
Issued by NWS Kansas City/Pleasant Hill, MO

Home | Current Version | Previous Version | Text Only | Print | Product List | Glossary On
Versions: 1 2 3 4 5 6 7 8 9 10 11 12 13 14 15 16 17 18 19 20 21 22 23 24 25 26 27 28 29 30 31 32 33 34 35 36 37 38 39 40 41 42 43 44 45 46 47 48 49 50
000
ASUS43 KEAX 041610
RWREAX

WEATHER ROUNDUP FOR EASTERN KANSAS AND NORTHWEST MISSOURI
NATIONAL WEATHER SERVICE KANSAS CITY/PLEASANT HILL MO
1100 AM CDT FRI SEP 04 2015

KSZ040-057-103>105-MOZ028-029-037-043-041700-
...KANSAS CITY METROPOLITAN AREA...

CITY           SKY/WX    TMP DP  RH WIND       PRES   REMARKS
K.C. INTL      MOSUNNY   86  69  56 S10       30.00R HX  90
K.C. DOWNTOWN  SUNNY     87  69  54 S12       29.98S HX  91
LEES SUMMIT    PTSUNNY   82  68  62 SW9       30.02R
OLATHE - IXD   SUNNY     83  70  64 S13       30.01S
OLATHE - OJC   MOSUNNY   81  69  67 S10       30.01R
LAWRENCE       SUNNY     86  68  54 S13       29.99R

$$

MOZ001>008-011>017-020>025-030>033-038>040-044>046-053-054-041700-
...NORTHERN AND CENTRAL MISSOURI...

CITY           SKY/WX    TMP DP  RH WIND       PRES   REMARKS
ST. JOSEPH     SUNNY     84  71  65 S8        29.98S
MOSBY          SUNNY     86  68  54 S6        29.99S
WARRENSBURG    PTSUNNY   82  68  61 SW9       30.02S
WHITEMAN AFB   MOSUNNY   86  67  52 SW10      30.01S
CLINTON          N/A     84  72  65 S3        30.03S
SEDALIA        MOSUNNY   88  67  49 SW12      30.04S HX  91
WARSAW         NOT AVBL
CHILLICOTHE      N/A     86  71  60 S6        30.01S HX  91
KIRKSVILLE     SUNNY     86  70  58 S9        30.04R HX  90

$$

MOZ041-047>049-056>058-063>065-088>090-097-041700-
...EASTERN AND SOUTHERN MISSOURI...

CITY           SKY/WX    TMP DP  RH WIND       PRES   REMARKS
ST. LOUIS INTL PTSUNNY   90  70  51 SW6       30.05S HX  95
SPIRIT OF STL  MOSUNNY   87  72  60 W6        30.03S HX  93
COLUMBIA       PTSUNNY   83  72  69 S7        30.05R
JEFFERSON CITY PTSUNNY   82  70  66 SE5       30.03R
ROLLA          MOSUNNY   87  68  52 SW7       30.06R HX  90
OSAGE BEACH    SUNNY     88  70  55 SW5       30.06R HX  92
SPRINGFIELD    PTSUNNY   80  70  71 S8        30.06S
BRANSON        MOSUNNY   84  70  61 CALM      30.08R
JOPLIN         SUNNY     85  69  58 S12       30.04R
WEST PLAINS    SUNNY     84  67  56 S6        30.10R

$$

IAZ060-094-KSZ022-034>040-054-083-096-NEZ052-066-093-041700-
...KANSAS...SOUTHEAST NEBRASKA AND IOWA...

CITY           SKY/WX    TMP DP  RH WIND       PRES   REMARKS
TOPEKA         SUNNY     84  69  60 S12       29.98S
MANHATTAN      SUNNY     88  67  49 S13G23    29.94F HX  91
EMPORIA        SUNNY     84  67  56 S15       29.99S
CHANUTE        SUNNY     84  70  62 S13       30.02R
WICHITA        MOSUNNY   86  66  51 S17       29.97R
OMAHA          CLOUDY    80  69  69 S12       29.90F
LINCOLN        CLOUDY    75  68  78 S14       29.89F
FALLS CITY     MOSUNNY   85  70  60 S8        29.96S
LAMONI         SUNNY     84  71  65 S10       30.00S
DES MOINES     PTSUNNY   85  70  60 S13       29.96F

$$




USA.gov is the U.S. government's official web portal to all federal, state and local government web resources and services.